This is the latest recevied weather packets stored in our database for station/object YM7KGL-1. If no packets are shown the sender has not sent any weather packets the latest 10 day(s).
| Time | Temp. | Humidity | Pressure | Rain* | Wind** | Luminosity | Snow |
|---|---|---|---|---|---|---|---|
| 1777983830 | 16.67° C | 54% | 1012.8 hPa | - | - | - | - |
| 1777982928 | 16.67° C | 55% | 1012.8 hPa | - | - | - | - |
| 1777979565 | 17.78° C | 54% | 1012.5 hPa | - | - | - | - |
| 1777978739 | 18.33° C | 54% | 1012.5 hPa | - | - | - | - |
| 1777976939 | 18.89° C | 53% | 1012.3 hPa | - | - | - | - |
| 1777976213 | 18.89° C | 53% | 1012.2 hPa | - | - | - | - |
| 1777976038 | 18.89° C | 53% | 1012.2 hPa | - | - | - | - |
| 1777975764 | 19.44° C | 53% | 1012.1 hPa | - | - | - | - |
| 1777974635 | 19.44° C | 53% | 1012.1 hPa | - | - | - | - |
| 1777973735 | 19.44° C | 53% | 1012.1 hPa | - | - | - | - |
| 1777972835 | 19.44° C | 53% | 1012.1 hPa | - | - | - | - |
| 1777972764 | 19.44° C | 53% | 1012.1 hPa | - | - | - | - |
| 1777971864 | 20° C | 52% | 1012 hPa | - | - | - | - |
| 1777969156 | 19.44° C | 53% | 1012.1 hPa | - | - | - | - |
| 1777968256 | 19.44° C | 53% | 1012.1 hPa | - | - | - | - |
| 1777966455 | 18.89° C | 54% | 1011.8 hPa | - | - | - | - |
| 1777965802 | 18.33° C | 54% | 1011.9 hPa | - | - | - | - |
| 1777964902 | 18.33° C | 54% | 1011.8 hPa | - | - | - | - |
| 1777964002 | 17.78° C | 55% | 1011.6 hPa | - | - | - | - |
| 1777963101 | 17.22° C | 55% | 1011.6 hPa | - | - | - | - |
| 1777962352 | 16.67° C | 55% | 1011.5 hPa | - | - | - | - |
| 1777961451 | 16.67° C | 55% | 1011.4 hPa | - | - | - | - |
| 1777960551 | 16.11° C | 55% | 1011.3 hPa | - | - | - | - |
| 1777959699 | 16.11° C | 55% | 1011.3 hPa | - | - | - | - |
| 1777959650 | 16.11° C | 55% | 1011.3 hPa | - | - | - | - |
* Rain since midnight (hover to see other rain measurements)
** Current wind speed in m/s (hover to see current wind gust speed)